Regional Weather Roundup
Issued by NWS

Home | Current Version | Previous Version | Text Only | Print | Product List | Glossary Off
Versions: 1 2 3 4 5 6 7 8 9 10 11 12 13 14 15 16 17 18 19 20 21 22 23 24 25 26 27 28 29 30 31 32 33 34 35 36 37 38 39 40 41 42 43 44 45 46 47 48 49 50

000
ASUS43 KMKX 272000
RWRWI

WISCONSIN REGIONAL WEATHER ROUNDUP
NATIONAL WEATHER SERVICE MILWAUKEE/SULLIVAN WI
300 PM CDT WED JUL 27 2016

NOTE: "FAIR" INDICATES FEW OR NO CLOUDS BELOW 12,000 FEET WITH NO
SIGNIFICANT WEATHER AND/OR OBSTRUCTIONS TO VISIBILITY.

WIZ001-002-006>008-014>016-023>028-272100-
NORTHWEST WISCONSIN

CITY           SKY/WX    TMP DP  RH WIND       PRES   REMARKS
SUPERIOR ARPT  DRIZZLE   62  60  93 NE10G22   30.03S
ASHLAND        LGT RAIN  64  61  90 N13G32    30.02S
HAYWARD        HVY RAIN  70  67  90 NE9       29.99F FOG
SIREN          HVY RAIN  68  66  94 NE17G28   29.97S
CUMBERLAND     RAIN      72  66  83 SE7       29.97F
RICE LAKE      CLOUDY    75  68  78 E3        29.98S
CHETEK         CLOUDY    76  69  79 MISG      29.96F
LADYSMITH      CLOUDY    74  67  78 E3        30.00F
EAU CLAIRE     NOT AVBL
MENOMONIE      CLOUDY    83  69  61 S10       29.93F HX  87
NEW RICHMOND   LGT RAIN  76  66  71 SW7       29.95R
OSCEOLA        RAIN      76  69  79 CALM      29.98R
$$

WIZ003>005-009-010-017-018-272100-
NORTH CENTRAL WISCONSIN

CITY           SKY/WX    TMP DP  RH WIND       PRES   REMARKS
MANITOWISH WTR CLOUDY    71  67  89 CALM      30.04R
ARBOR VITAE    LGT RAIN  72  67  84 CALM      30.03S
WOODRUFF       LGT RAIN  72  67  84 CALM      30.03S
RHINELANDER    CLOUDY    72  65  78 CALM      30.03S
EAGLE RIVER    LGT RAIN  70  63  80 CALM      30.03S
LAND O LAKES   LGT RAIN  71  67  87 E3        30.04S
PHILLIPS       RAIN      69  66  92 NE3       30.02R
TOMAHAWK       CLOUDY    71  66  84 CALM      30.02S
MEDFORD        CLOUDY    73  68  83 CALM      30.00F
MERRILL        CLOUDY    73  69  86 CALM      30.02S
$$

WIZ029-030-035-036-043>047-272100-
CENTRAL WISCONSIN

CITY           SKY/WX    TMP DP  RH WIND       PRES   REMARKS
WAUSAU         MOSUNNY   77  68  73 CALM      29.98F
MOSINEE        NOT AVBL
MARSHFIELD     LGT RAIN  82  69  64 S8        29.98F HX  85
STEVENS POINT  CLOUDY    77  65  66 S7        30.00F
WAUPACA        PTSUNNY   79  67  66 CALM      29.99F HX  81
WAUTOMA        LGT RAIN  73  66  78 CALM      30.00F
WISC RAPIDS    CLOUDY    81  66  60 S8        29.99F HX  83
CAMP DOUGLAS   NOT AVBL
$$

WIZ011>013-019>022-031-037>040-048>050-272100-
NORTHEAST WISCONSIN

CITY           SKY/WX    TMP DP  RH WIND       PRES   REMARKS
ANTIGO         CLOUDY    71  67  85 CALM      30.02F
SHAWANO        CLOUDY    79  66  64 CALM      29.98F HX  81
OCONTO         CLOUDY    75  69  79 CALM      29.97S
STURGEON BAY   CLOUDY    77  64  64 NW6       29.97F
GREEN BAY      MOSUNNY   77  70  79 CALM      29.97F
MANITOWOC      NOT AVBL
APPLETON       CLOUDY    75  61  60 VRB6      29.98S
CLINTONVILLE   CLOUDY    77  63  61 S5        29.98S
OSHKOSH        PTSUNNY   75  69  81 SE6       29.99S
$$

WIZ032>034-041-042-053>061-272100-
SOUTHWEST WISCONSIN

CITY           SKY/WX    TMP DP  RH WIND       PRES   REMARKS
LA CROSSE      CLOUDY    84  68  58 S9        29.95F HX  87
SPARTA         PTSUNNY   81  69  67 SW3       29.98S HX  85
VIROQUA        CLOUDY    81  67  63 SW5       30.00F HX  83
BOSCOBEL       CLOUDY    85  67  54 S8        29.97F HX  87
PRAIRIE DU CHI CLOUDY    83  64  51 SW3       29.97F HX  84
PLATTEVILLE    MOSUNNY   83  66  55 SW7       30.00F HX  85
$$

WIZ056-057-062-063-064-067-068-272100-
SOUTH CENTRAL WISCONSIN

CITY           SKY/WX    TMP DP  RH WIND       PRES   REMARKS
REEDSBURG      PTSUNNY   84  71  63 SW9       29.98S HX  89
BARABOO/DELLS  CLOUDY    77  66  69 E15       29.99S
LONE ROCK      NOT AVBL
MINERAL POINT  MOSUNNY   86  68  54 S6        30.00F HX  89
MADISON        PTSUNNY   86  65  49 S6        29.97F HX  88
MIDDLETON      MOSUNNY   86  64  47 SW6       29.99S HX  87
WATERTOWN      MOSUNNY   85  69  58 SW8       29.98R HX  89
MONROE         MOSUNNY   82  63  51 S7        29.99F HX  83
JANESVILLE     MOSUNNY   88  64  45 SW7       29.98R HX  89
$$

WIZ051-052-058>065-066-070>072-272100-
SOUTHEAST WISCONSIN

CITY           SKY/WX    TMP DP  RH WIND       PRES   REMARKS
MILWAUKEE      CLOUDY    87  68  52 SE14      29.96F HX  90
WAUKESHA       MOSUNNY   84  64  51 SW7       29.98F HX  86
MILWAUKEE/TIMM MOSUNNY   88  61  40 NE9       29.98S HX  88
RACINE         MOSUNNY   85  66  53 SE8       29.98F HX  87
BURLINGTON     PTSUNNY   85  63  46 SW5       29.97S HX  86
KENOSHA        PTSUNNY   86  64  47 W7        29.96F HX  87
FOND DU LAC    LGT RAIN  75  69  81 E7        30.00R
SHEBOYGAN      LGT RAIN  70  67  90 SW6       30.00F
WEST BEND      CLOUDY    73  63  68 NE13      30.00R
JUNEAU         HVY RAIN  73  67  82 N14       30.01R
$$

LSZ147-162-272100-
LAKE SUPERIOR

STATION/POSITION TIME  TEMP    WIND        PRES    WAVE
                       AIR SEA DIR/SP/G            HT/PER
                 (UTC) (F)     (DEG/KT/KT) (MB)    (FT/S)
W MID LAKE BUOY  1850   62 60   70/ 16/ 19 1016.2R   2/ 4
DEVILS ISLAND    1900   62      50/ 15/ 17 1017.5R
PORT WING        1900   65      30/ 24     1016.3F
SAXON HARBOR     1940   68      30/ 10/ 11 1015.9R
$$

LMZ867-665-643>646-272100-
LAKE MICHIGAN

STATION/POSITION TIME  TEMP    WIND        PRES    WAVE
                       AIR SEA DIR/SP/G            HT/PER
                 (UTC) (F)     (DEG/KT/KT) (MB)    (FT/S)
CHAMBERS ISLAND  1900   76     270/  2/  6 1014.9F
S GREEN BAY BUOY 1930   72 75  320/  2/  2   N/A
N MID LAKE BUOY  1850   71 70   CALM  /  2 1014.1F   1
NORTHPORT PIER   1900   74     310/  9/ 12 1014.9F
SISTER BAY       1921   76     360/  6/  6   N/A
ALGOMA LAKESHORE 1913          330/  6/  8   N/A
KEWAUNEE LAKESHO 1900   81      80/  5/  7 1014.5F
SHEBOYGAN LAKESH 1900   71     290/  7/  8 1016.2R
PORT WASHINGTON  1900   72      40/  5/ 11 1015.9
ATWATER BUOY     1900   69 62  150/ 10/ 12 1016.3F
MILWAUKEE LAKESH 1910   71     140/ 16/ 17   N/A
S MID LAKE BUOY  1850   77 76  190/  6/  8 1014.9F   0
KENOSHA   LAKESH 1900   78     130/ 10/ 10 1014.6F
$$

TC  - TEMPERATURE IN CELSIUS
VSB - VISIBILITY IN STATUTE MILES
WCI - WIND CHILL INDEX
HX  - HEAT INDEX





USA.gov is the U.S. government's official web portal to all federal, state and local government web resources and services.